TimeCST,TemperatureF,Dew PointF,Humidity,Sea Level PressureIn,VisibilityMPH,Wind Direction,Wind SpeedMPH,Gust SpeedMPH,PrecipitationIn,Events,Conditions,WindDirDegrees,DateUTC
12:53 AM,39.0,24.1,55,30.32,10.0,South,12.7,-,N/A,,Clear,180,2012-11-14 06:53:00
1:53 AM,37.0,24.1,59,30.33,10.0,South,12.7,-,N/A,,Clear,190,2012-11-14 07:53:00
2:53 AM,35.1,21.9,59,30.33,10.0,SSW,15.0,-,N/A,,Clear,200,2012-11-14 08:53:00
3:53 AM,33.1,21.9,64,30.34,10.0,SSW,11.5,-,N/A,,Clear,200,2012-11-14 09:53:00
4:53 AM,33.1,21.0,61,30.33,10.0,SSW,12.7,-,N/A,,Clear,200,2012-11-14 10:53:00
5:53 AM,33.1,21.0,61,30.34,10.0,South,10.4,-,N/A,,Clear,190,2012-11-14 11:53:00
6:53 AM,32.0,21.0,64,30.34,10.0,South,11.5,-,N/A,,Clear,190,2012-11-14 12:53:00
7:53 AM,35.1,21.9,59,30.35,10.0,SSW,6.9,-,N/A,,Clear,210,2012-11-14 13:53:00
8:53 AM,39.9,21.0,47,30.37,10.0,SW,10.4,-,N/A,,Clear,220,2012-11-14 14:53:00
9:53 AM,43.0,21.9,43,30.36,10.0,SW,9.2,-,N/A,,Clear,230,2012-11-14 15:53:00
10:53 AM,48.0,24.1,39,30.36,10.0,SSW,8.1,-,N/A,,Clear,200,2012-11-14 16:53:00
11:53 AM,53.1,24.1,32,30.33,10.0,SSW,9.2,-,N/A,,Clear,210,2012-11-14 17:53:00
12:53 PM,57.0,24.1,28,30.31,10.0,SSW,10.4,-,N/A,,Clear,200,2012-11-14 18:53:00
1:53 PM,59.0,24.1,26,30.28,10.0,SSW,11.5,-,N/A,,Clear,210,2012-11-14 19:53:00
2:53 PM,60.1,25.0,26,30.26,10.0,SSW,10.4,-,N/A,,Clear,200,2012-11-14 20:53:00
3:53 PM,60.1,26.1,27,30.24,10.0,South,12.7,-,N/A,,Clear,190,2012-11-14 21:53:00
4:53 PM,59.0,27.0,29,30.23,10.0,South,11.5,-,N/A,,Clear,190,2012-11-14 22:53:00
5:53 PM,46.9,28.0,48,30.24,10.0,South,9.2,-,N/A,,Clear,170,2012-11-14 23:53:00
6:53 PM,48.0,28.0,46,30.24,10.0,South,11.5,-,N/A,,Clear,170,2012-11-15 00:53:00
7:53 PM,48.9,25.0,39,30.24,10.0,South,12.7,-,N/A,,Clear,170,2012-11-15 01:53:00
8:53 PM,48.0,24.1,39,30.22,10.0,South,16.1,-,N/A,,Clear,170,2012-11-15 02:53:00
9:53 PM,46.9,24.1,41,30.24,10.0,South,13.8,-,N/A,,Clear,180,2012-11-15 03:53:00
10:53 PM,45.0,24.1,44,30.22,10.0,South,11.5,-,N/A,,Clear,170,2012-11-15 04:53:00
11:53 PM,39.9,25.0,55,30.22,10.0,SSE,11.5,-,N/A,,Clear,150,2012-11-15 05:53:00